Location: Allentsteig
(48.6833°N, 15.3167°E)
Time: 08:50:46
(UTC+00:00)

Cosmos 2298 Rocket - Pass Details

Date: 16 January 2021
Orbit: 775 x 784 km, 74.0° (Epoch: 24 February)

Event Time Altitude Azimuth Distance (km) Brightness Sun altitude
Exits shadow 04:17:15 - 352° (N) 2,850 6.8 -23.9°
Reaches altitude 10° 04:19:11 10° 6° (N) 2,353 6.5 -23.6°
Maximum altitude 04:22:28 16° 44° (NE) 1,954 6.5 -23.0°
Drops below altitude 10° 04:25:43 10° 82° (E) 2,347 7.6 -22.5°
Sets 04:29:04 0° 104° (ESE) 3,271 8.8 -21.9°
